Погода в Оханске

Погода в Оханске : погода сейчас, прогноз погоды и архив. Всё, что Вы хотите узнать о погоде в Оханске!

Поиск расширенной информации на нашем сайте:

Другие новости

Новости СМИ2

Главная страница сайта

Новости сайта

03.07.2017

Напоминаем, что на нашем специализированном сайте Метеоцентр.Азия вы можете получить высокодетализированные автоматические прогнозы погоды по пунктам России, СНГ и мира в авиационном формате (включающие направление и скорость ветра, видимость, явления погоды, количество и форму облачности, нижнюю и верхнюю границу облачности).


Погода в Оханске - сегодня

Время (UTC), дата Ветер
(°,м/с) 
Видим.   Явления Облачность Т
(°С)
Тd
(°С)
f(%) Тe
(°С)
Pmin
(гПа)
dP
(гПа)
Po
(мм)
O2
(г/м3)
Тmin Tmax R s Состояние
почвы
18 19.10.17 280 (З) 5-10{14}  20000 м    8/8 600 м 
[Sc]
+3.4 -0.7 74 +1  998.8  1.5  734  292           
21 19.10.17 260 (З) 5{11}  20000 м    8/8 600 м 
[Sc]
+2.8 -0.8 77 999.8  735  293           
00 20.10.17 270 (З) 20000 м    10/4 600 м средняя 
[Sc|Ac As]
+1.8 -0.7 83 1000.6  0.8  735  294           
03 20.10.17 270 (З) 4{10}  20000 м    10/8 600 м средняя 
[Sc|As op]
+1.7 -0.6 85 1002.1  1.5  737  295  +1.5        влажная 
06 20.10.17 290 (З) 5{10}  20000 м  {ливн. осадки}  9/8 600 м кучево-дожд., средняя 
[Cb calv|Ac trans]
+2.6 -2.1 71 1004  738  295           
09 20.10.17 310 (СЗ) 4{15}  4000 м  ливневой снег  10/8 600 м кучево-дожд., средняя 
[Cb calv|As op]
+0.5 -2.6 80 -2  1006.7  2.3  740  298           
12 20.10.17 290 (З) 5{13}  20000 м  {ливн. осадки}  10/10 600 м кучево-дожд. 
[Cb cap]
+0.1 -6.6 61 -3  1009.2  2.4  742  299           
15 20.10.17 300 (СЗ) 5{10}  2000 м  слаб. ливневой снег  10/10 600 м кучево-дожд. 
[Cb cap]
-0.4 -6.2 65 -3  1010.8  1.5  743  300    +3.2  0.3     
18 20.10.17 310 (СЗ) 2000 м  слаб. ливневой снег  8/8 600 м кучево-дожд. 
[Cb cap]
-0.7 -4.4 76 -3  1011.7  0.9  743  301           
21 20.10.17 290 (З) 4000 м  слаб. снег{ливн. осадки}  10/8 600 м средняя 
[Sc diur, vesp|As op]
-0.6 -6.4 65 -3  1011.9  0.1  744  301           
00 21.10.17 290 (З) 4000 м  слаб. снег{ливн. осадки}  10/8 600 м средняя 
[Sc|As op]
-0.8 -6.7 64 -3  1012  0.1  744  301           
03 21.10.17 280 (З) 20000 м  {снег}  10/8 600 м средняя 
[Sc|As op]
-1.3 -5.5 73 -4  1012.2  0.2  744  302  -1.5    0.2    замёрзшая 
06 21.10.17 270 (З) 20000 м  {снег}  10/8 600 м кучево-дожд., средняя 
[Cb cap|As op]
-0.4 -5.8 67 -1  1012.3  0.1  744  301           
09 21.10.17 280 (З) 4000 м  слаб. ливневой снег  9/9 600 м кучево-дожд. 
[Cb calv]
-0.4 -5.2 70 -2  1012  -0.3  744  301           
12 21.10.17 270 (З) 3{10}  20000 м  в посл. час ливневой снег  8/5 600 м кучево-дожд., средняя 
[Cb calv|Ac trans]
-0.7 -5.3 71 -3  1011.7  -0.4  743  301           
15 21.10.17 270 (З) 20000 м  в посл. час ливневой снег  9/8 600 м кучево-дожд., средняя 
[Cb cap|Ac trans]
-1.7 -4.9 79 -3  1011.8  0.1  743  302    +1.5  0.7     
18 21.10.17 280 (З) 20000 м  {ливн. осадки}  4/4 2000 м средняя 
[Ac trans]
-2.3 -5.5 79 -3  1011.7  -0.2  743  303           
21 21.10.17 250 (З) 20000 м    10/8 600 м кучево-дожд., средняя 
[Cb cap|Ac trans]
-2.2 -5.5 78 -3  1011.4  -0.2  743  302           
00 22.10.17 250 (З) 20000 м    8/5 600 м кучево-дожд., средняя 
[Cb cap|Ac trans]
-2.6 -5.1 83 -4  1011.5  743  303           
03 22.10.17 240 (ЮЗ) 20000 м    8/5 600 м кучево-дожд., средняя 
[Cb cap|Ac trans]
-2.9 -5.8 80 -4  1011.6  0.1  743  303  -3.3      <0.5  равномерный
сухой снег
100% 
06 22.10.17 240 (ЮЗ) 20000 м    9/6 600 м средняя 
[Sc|Ac trans]
-1.2 -6 70 -4  1012.2  0.7  744  302           
09 22.10.17 240 (ЮЗ) 20000 м    10/8 600 м средняя 
[Sc|As op]
-0.1 -6.8 61 -2  1012.9  0.8  744  301           
12 22.10.17 230 (ЮЗ) 20000 м    10/10 600 м 
[Sc]
-0.4 -8.4 55 -3  1013.4  0.5  745  301           
15 22.10.17 250 (З) 20000 м    9/6 600 м средняя 
[Sc|Ac trans]
-1 -8 59 -2  1014.2  0.7  745  302    +0.2       
18 22.10.17 270 (З) 20000 м    10/6 600 м средняя 
[Sc|Ac trans]
-1.3 -8.2 59 -2  1014.8  0.6  746  303           
Время (UTC), дата Ветер
(°,м/с) 
Видим.   Явления Облачность Т
(°С)
Тd
(°С)
f(%) Тe
(°С)
Pmin
(гПа)
dP
(гПа)
Po
(мм)
O2
(г/м3)
Тmin Tmax R s Состояние
почвы

Для получения пояснительной информации подведите курсор к названию столбца.

ПОГОДА в Оханске - архив

Всё, что Вы хотите узнать о погоде в Оханске - удобно и подробно!

Выберите нужную дату (начиная с 1 января 2015* года) и нажмите кнопку "Найти".
Будут отображены архивные сводки погоды по пункту Оханск, начиная с указанной даты.


Отображать данные в формате CSV (для использования в таблицах Excel)


Внимание! Наш архив погоды предназначен исключительно для личного некоммерческого использования в познавательных целях. Если Вам необходимы официальные справки о состоянии погоды (для производственных, юридических, коммерческих и т.п. целей), обращайтесь в органы Росгидромета.

*Примечание: данная дата относится к архиву по метеостанциям СССР (Россия, СНГ, Балтия).
Архив по метеостанциям Зарубежной Европы и Азии (кроме Китая) хранится 10 дней, по другим регионам земного шара (Китай, Африка, Америка, Австралия, Океания) - 1 день.

Оханск - район местоположения метеостанции


Название, широта, долгота, высота метеостанции:
Оханск 57.7°ш. 55.4°д. 163 м над ур. моря [Российская Федерация]

Дополнительная информация

В oтличие oт бoльшинства пoгoдных сайтoв мы публикуем пoдрoбную метеoинфoрмацию в детальнoм прoфессиoнальнoм фoрмате.

Характеристики температуры и влажнoсти вoздуха измеряются на высoте 2 м в тени вдали oт зданий и деревьев.
Скoрoсть ветра измеряется на высoте 10 м (на урoвне рoста челoвека скoрoсть ветра ниже в 1.5-2 раза). Если метеoстанция нахoдится в гoрoде или в лесу, тo скoрoсть ветра занижена на 2-4 м/с пo сравнению с oткрытым местoм. Скoрoсть ветра над акватoриями крупных рек и oзёр, а также на вершинах хoлмoв на 2-5 м/с выше, чем в oбычных услoвиях.
Атмoсфернoе давление в разных тoчках местнoсти мoжет значительнo oтличаться oт давления на метеoстанции, в зависимoсти oт услoвий рельефа (при пoдъёме на 10 м давление пoнижается примернo на 1 мм рт.ст.).